Home   Weather   Bristol   Past weeks

Flag for United Kingdom Past Weather in Bristol, England, United Kingdom — Yesterday and Last 2 Weeks

Now
54 °F

Passing clouds.


Feels Like: 50 °F
Forecast: 56 / 64 °F
Wind: 10 mph from Southwest

Location: Bristol / Lulsgate

Current Time: Sep 28, 2016 at 7:57:54 AM

Latest Report: Sep 28, 2016 at 7:20 AM


Visibility: N/A

Pressure: 30.27 "Hg

Humidity: 94%

Dew Point: 52 °F

Location of BristolLocation

Past Weather in Bristol — Graph

°F

Bristol Temperature Yesterday

Maximum temperature yesterday: 64 °F (at 12:50 PM)
Minimum temperature yesterday: 55 °F (at 2:50 AM)
Average temperature yesterday: 59 °F

High & Low Weather Summary for the Past Weeks

 TemperatureHumidityPressure
High75 °F (Sep 14, 2:50 PM)100% (Sep 13, 7:20 AM)30.30 "Hg (Sep 13, 7:20 AM)
Low48 °F (Sep 23, 6:50 AM)56% (Sep 23, 3:50 PM)29.74 "Hg (Sep 25, 12:20 AM)
Average59 °F85%30.05 "Hg
* Reported Sep 13 6:20 AM — Sep 28 6:20 AM, Bristol, Weather by CustomWeather, © 2016

Note: Actual official high and low records may vary slightly from our data, if they occured in-between our weather recording intervals... More about our weather records

Advertising

Bristol Weather History for the Previous 24 Hours

Scroll right to see more
 ConditionsComfort  
Time TempWeatherWind HumidityBarometerVisibility
6:20 AM
Wed, Sep 28
54 °FPassing clouds.12 mph94%30.27 "HgN/A
5:50 AM54 °FPassing clouds.13 mph94%30.27 "HgN/A
5:20 AM54 °FCool.10 mph94%30.27 "HgN/A
4:50 AM54 °FCool.10 mph94%30.27 "HgN/A
4:20 AM55 °FCool.13 mph88%30.27 "HgN/A
3:50 AM55 °FPassing clouds.12 mph94%30.27 "HgN/A
3:20 AM55 °FPassing clouds.13 mph94%30.27 "HgN/A
2:50 AM57 °FLow clouds.9 mph88%30.27 "HgN/A
2:20 AM57 °FOvercast.12 mph88%30.27 "HgN/A
1:50 AM57 °FLow clouds.10 mph88%30.30 "HgN/A
1:20 AM57 °FLow clouds.9 mph88%30.30 "HgN/A
12:50 AM55 °FLow clouds.15 mph94%30.30 "Hg6 mi
12:20 AM55 °FLow clouds.15 mph94%30.27 "Hg6 mi
11:50 PM
Tue, Sep 27
55 °FLow clouds.10 mph94%30.27 "Hg6 mi
11:20 PM55 °FLow clouds.8 mph100%30.27 "Hg6 mi
10:50 PM55 °FPassing clouds.6 mph94%30.27 "Hg6 mi
10:20 PM55 °FLow clouds.5 mph94%30.27 "Hg5 mi
9:50 PM55 °FPassing clouds.7 mph94%30.27 "Hg5 mi
9:20 PM55 °FLow clouds.8 mph94%30.27 "Hg6 mi
8:50 PM55 °FPassing clouds.9 mph94%30.27 "HgN/A
8:20 PM55 °FPassing clouds.7 mph88%30.24 "HgN/A
7:50 PM55 °FCool.14 mph94%30.24 "HgN/A
7:20 PM57 °FPassing clouds.13 mph88%30.24 "HgN/A
6:50 PM57 °FPassing clouds.17 mph88%30.24 "HgN/A
6:20 PM59 °FPassing clouds.21 mph88%30.21 "HgN/A
5:50 PM59 °FPartly sunny.20 mph94%30.21 "HgN/A
5:20 PM61 °FMostly cloudy.22 mph94%30.21 "HgN/A
4:50 PM61 °FPartly sunny.16 mph94%30.18 "HgN/A
4:20 PM61 °FLow clouds.13 mph100%30.18 "HgN/A
3:50 PM63 °FLight rain. Low clouds.14 mph94%30.18 "Hg1 mi
3:20 PM64 °FMostly cloudy.9 mph88%30.18 "HgN/A
2:20 PM64 °FMostly cloudy.7 mph88%30.18 "HgN/A
1:50 PM63 °FMostly cloudy.9 mph94%30.18 "HgN/A
1:20 PM64 °FMostly cloudy.9 mph88%30.15 "HgN/A
12:50 PM64 °FMostly cloudy.10 mph88%30.15 "HgN/A
12:20 PM63 °FLow clouds.9 mph94%30.15 "HgN/A
11:50 AM63 °FMostly cloudy.10 mph88%30.15 "HgN/A
11:20 AM63 °FLow clouds.9 mph88%30.15 "HgN/A
10:50 AM63 °FLow clouds.12 mph88%30.12 "HgN/A
10:20 AM61 °FLow clouds.9 mph94%30.12 "HgN/A
9:50 AM61 °FLow clouds.10 mph100%30.12 "HgN/A
9:20 AM61 °FLow clouds.10 mph94%30.09 "HgN/A
8:50 AM59 °FLow clouds.9 mph100%30.09 "Hg4 mi
8:20 AM59 °FFog.13 mph100%30.09 "Hg1 mi
7:50 AM59 °FDrizzle. Fog.10 mph94%30.09 "Hg1 mi
7:20 AM59 °FDrizzle. Fog.10 mph94%30.09 "Hg1 mi
Weather by CustomWeather, © 2016

See weather overviewHow to use our weather pages